FW8892 Weather Reports


Display with metric or nautical units.
time (UTC)temp
F
wind
direction
speed
MPH
gust
MPH
rain 1hr
in
rain 24hr
in
rain mn
in
humidity
%
barometer
mb
20260510034549 56 0 0.0 0.0 0.00 0.00 0.00 89 1013.1
20260510034028 56 0 0.0 0.0 0.00 0.00 0.00 89 1013.2
20260510033527 56 0 0.0 0.0 0.00 0.00 0.00 88 1013.1
20260510033047 56 0 0.0 0.0 0.00 0.00 0.00 87 1013.2
20260510032530 56 0 0.0 0.0 0.00 0.00 0.00 87 1013.3
20260510032029 56 0 0.0 0.0 0.00 0.00 0.00 86 1013.1
20260510031547 56 0 0.0 0.0 0.00 0.00 0.00 86 1013.1
20260510031029 57 0 0.0 0.0 0.00 0.00 0.00 85 1013.1
20260510030530 57 0 0.0 0.0 0.00 0.00 0.00 85 1013.2
20260510030045 57 0 0.0 0.0 0.00 0.00 0.00 84 1013.0
20260510025529 57 0 0.0 0.0 0.00 0.00 0.00 84 1013.0
20260510025028 58 0 0.0 0.0 0.00 0.00 0.00 84 1013.0
20260510024543 58 0 0.0 0.0 0.00 0.00 0.00 84 1013.0
20260510024029 58 0 0.0 0.0 0.00 0.00 0.00 83 1012.9
20260510023531 58 0 0.0 0.0 0.00 0.00 0.00 82 1012.9
20260510023051 59 0 0.0 0.0 0.00 0.00 0.00 82 1012.7
20260510022529 59 0 0.0 0.0 0.00 0.00 0.00 82 1012.6
20260510022030 59 0 0.0 0.0 0.00 0.00 0.00 81 1012.5
20260510021548 59 0 0.0 0.0 0.00 0.00 0.00 80 1012.4
20260510021028 60 0 0.0 0.0 0.00 0.00 0.00 80 1012.4
20260510020530 60 0 0.0 0.0 0.00 0.00 0.00 80 1012.3
20260510020050 60 0 0.0 0.0 0.00 0.00 0.00 79 1012.3
20260510015529 60 0 0.0 0.0 0.00 0.00 0.00 78 1012.3
20260510015030 61 0 0.0 0.0 0.00 0.00 0.00 77 1012.2
20260510014551 61 0 0.0 0.0 0.00 0.00 0.00 76 1012.1
20260510014030 62 0 0.0 0.0 0.00 0.00 0.00 75 1012.1
20260510013529 62 0 0.0 0.0 0.00 0.00 0.00 75 1012.0
20260510013046 63 0 0.0 0.0 0.00 0.00 0.00 74 1012.0
20260510012531 63 0 0.0 0.0 0.00 0.00 0.00 74 1011.9
20260510012030 64 0 0.0 0.0 0.00 0.00 0.00 73 1011.7
20260510011543 65 0 0.0 0.0 0.00 0.00 0.00 72 1011.7
20260510011029 65 0 0.0 0.0 0.00 0.00 0.00 71 1011.6
20260510010530 66 0 0.0 0.0 0.00 0.00 0.00 69 1011.5
20260510010041 67 0 0.0 0.0 0.00 0.00 0.00 68 1011.4
20260510005529 68 0 0.0 0.0 0.00 0.00 0.00 67 1011.4
20260510005029 68 0 0.0 0.0 0.00 0.00 0.00 66 1011.3
20260510004553 69 0 0.0 0.0 0.00 0.00 0.00 65 1011.3
20260510004029 70 0 0.0 0.0 0.00 0.00 0.00 63 1011.3
20260510003530 70 0 0.0 0.0 0.00 0.00 0.00 62 1011.3
20260510003048 71 0 0.0 0.0 0.00 0.00 0.00 60 1011.2
20260510002530 72 0 0.0 2.0 0.00 0.00 0.00 56 1011.2
20260510002029 72 0 0.0 2.0 0.00 0.00 0.00 55 1011.2
20260510001546 72 0 0.0 2.0 0.00 0.00 0.00 55 1011.1
20260510001029 72 212 0.0 4.0 0.00 0.00 0.00 53 1011.1
20260510000529 73 0 0.0 4.0 0.00 0.00 0.00 53 1011.1
20260510000045 73 197 0.0 4.0 0.00 0.00 0.00 52 1011.2
20260509235529 73 215 1.0 3.0 0.00 0.00 0.00 52 1011.1
20260509235029 73 0 0.0 3.0 0.00 0.00 0.00 52 1010.9
20260509234547 74 0 0.0 5.0 0.00 0.00 0.00 51 1011.0
20260509234029 74 238 1.0 5.0 0.00 0.00 0.00 52 1011.0
20260509233530 74 196 1.0 4.0 0.00 0.00 0.00 51 1010.9
20260509233101 74 207 1.0 4.0 0.00 0.00 0.00 50 1011.0
20260509232526 74 0 1.0 3.0 0.00 0.00 0.00 50 1011.0
20260509232028 74 0 1.0 3.0 0.00 0.00 0.00 49 1011.0
20260509231548 75 0 1.0 3.0 0.00 0.00 0.00 51 1011.0
20260509231027 75 0 0.0 2.0 0.00 0.00 0.00 50 1011.0
20260509230529 75 242 0.0 2.0 0.00 0.00 0.00 49 1010.9
20260509230038 75 0 0.0 2.0 0.00 0.00 0.00 49 1010.9
20260509225529 75 0 0.0 3.0 0.00 0.00 0.00 48 1011.0
20260509225026 76 0 0.0 3.0 0.00 0.00 0.00 49 1010.8
20260509224546 76 223 0.0 3.0 0.00 0.00 0.00 49 1010.9
20260509224026 76 301 0.0 4.0 0.00 0.00 0.00 47 1010.9
20260509223526 76 308 1.0 6.0 0.00 0.00 0.00 47 1011.0
20260509223046 77 214 0.0 6.0 0.00 0.00 0.00 49 1010.9
20260509222526 77 213 1.0 5.0 0.00 0.00 0.00 45 1010.9
20260509222028 77 328 0.0 8.0 0.00 0.00 0.00 45 1010.9
20260509221545 77 142 4.0 8.0 0.00 0.00 0.00 45 1010.8
20260509221026 77 207 1.0 4.0 0.00 0.00 0.00 46 1010.7
20260509220526 78 0 0.0 2.0 0.00 0.00 0.00 45 1010.8
20260509220043 78 0 0.0 2.0 0.00 0.00 0.00 45 1010.8
20260509215527 79 0 0.0 3.0 0.00 0.00 0.00 43 1010.7
20260509215028 79 0 0.0 4.0 0.00 0.00 0.00 45 1010.7
20260509214542 79 224 1.0 4.0 0.00 0.00 0.00 46 1010.6
20260509214031 79 262 0.0 4.0 0.00 0.00 0.00 46 1010.6
20260509213529 78 0 0.0 5.0 0.00 0.00 0.00 48 1010.5
20260509213050 78 322 1.0 6.0 0.00 0.00 0.00 47 1010.4
20260509212528 78 298 2.0 6.0 0.00 0.00 0.00 48 1010.3
20260509212027 78 302 2.0 5.0 0.00 0.00 0.00 47 1010.4
20260509211552 78 347 2.0 5.0 0.00 0.00 0.00 47 1010.4
20260509211029 79 57 0.0 5.0 0.00 0.00 0.00 49 1010.5
20260509210527 79 29 1.0 5.0 0.00 0.00 0.00 44 1010.4
20260509210047 80 329 1.0 5.0 0.00 0.00 0.00 45 1010.5
20260509205528 80 196 1.0 4.0 0.00 0.00 0.00 46 1010.5
20260509205030 80 301 1.0 3.0 0.00 0.00 0.00 46 1010.4
20260509204547 80 238 1.0 7.0 0.00 0.00 0.00 51 1010.6
20260509204029 80 0 0.0 7.0 0.00 0.00 0.00 46 1010.5
20260509203528 80 143 3.0 7.0 0.00 0.00 0.00 50 1010.6
20260509203106 80 207 0.0 4.0 0.00 0.00 0.00 50 1010.5
20260509202528 80 345 0.0 4.0 0.00 0.00 0.00 49 1010.6
20260509202029 80 201 1.0 4.0 0.00 0.00 0.00 53 1010.6
20260509201540 80 346 1.0 4.0 0.00 0.00 0.00 51 1010.7
20260509201028 79 179 1.0 4.0 0.00 0.00 0.00 51 1010.7
20260509200529 79 213 0.0 4.0 0.00 0.00 0.00 55 1010.8
20260509200052 79 282 1.0 5.0 0.00 0.00 0.00 53 1010.8
20260509195529 79 220 1.0 6.0 0.00 0.00 0.00 53 1010.8
20260509195030 79 197 1.0 6.0 0.00 0.00 0.00 53 1011.0
20260509194545 79 142 2.0 6.0 0.00 0.00 0.00 52 1011.1
20260509194029 79 0 1.0 6.0 0.00 0.00 0.00 53 1011.1
20260509193529 79 188 2.0 6.0 0.00 0.00 0.00 56 1011.3
20260509193054 78 242 1.0 4.0 0.00 0.00 0.00 58 1011.2
20260509192527 78 70 0.0 4.0 0.00 0.00 0.00 54 1011.2
20260509192027 78 257 1.0 5.0 0.00 0.00 0.00 56 1011.3
20260509191556 78 226 1.0 5.0 0.00 0.00 0.00 58 1011.3
20260509191028 78 210 0.0 6.0 0.00 0.00 0.00 57 1011.4
20260509190525 78 90 1.0 7.0 0.00 0.00 0.00 53 1011.4
20260509190048 78 217 3.0 7.0 0.00 0.00 0.00 57 1011.5
20260509185529 78 0 0.0 6.0 0.00 0.00 0.00 57 1011.4
20260509185031 78 253 2.0 9.0 0.00 0.00 0.00 59 1011.4
20260509184545 78 218 3.0 9.0 0.00 0.00 0.00 62 1011.4
20260509184028 77 146 1.0 6.0 0.00 0.00 0.00 63 1011.2
20260509183526 77 57 1.0 6.0 0.00 0.00 0.00 57 1011.2
20260509183047 77 257 2.0 6.0 0.00 0.00 0.00 62 1011.2
20260509182526 76 246 2.0 6.0 0.00 0.00 0.00 64 1011.2
20260509182026 75 192 1.0 4.0 0.00 0.00 0.00 62 1011.2
20260509181544 75 42 1.0 4.0 0.00 0.00 0.00 63 1011.2
20260509181026 75 294 1.0 4.0 0.00 0.00 0.00 62 1011.2
20260509180529 74 12 2.0 5.0 0.00 0.00 0.00 62 1011.2
20260509180043 74 0 1.0 5.0 0.00 0.00 0.00 63 1011.2
20260509175527 75 27 2.0 5.0 0.00 0.00 0.00 64 1011.1
20260509175026 74 0 1.0 5.0 0.00 0.00 0.00 63 1011.1
20260509174549 74 335 2.0 5.0 0.00 0.00 0.00 64 1011.2
20260509174026 74 155 0.0 4.0 0.00 0.00 0.00 67 1011.2
20260509173529 73 106 1.0 4.0 0.00 0.00 0.00 66 1011.2
20260509173040 73 360 1.0 6.0 0.00 0.00 0.00 65 1011.2
20260509172529 73 302 2.0 6.0 0.00 0.00 0.00 66 1011.3
20260509172029 73 92 1.0 5.0 0.00 0.00 0.00 64 1011.4
20260509171547 73 43 2.0 5.0 0.00 0.00 0.00 65 1011.3
20260509171028 73 30 2.0 9.0 0.00 0.00 0.00 64 1011.4
20260509170530 74 350 3.0 9.0 0.00 0.00 0.00 64 1011.3
20260509170054 74 21 1.0 5.0 0.00 0.00 0.00 65 1011.4
20260509165529 74 70 2.0 5.0 0.00 0.00 0.00 64 1011.4
20260509165031 74 134 2.0 4.0 0.00 0.00 0.00 66 1011.5
20260509164557 74 212 1.0 4.0 0.00 0.00 0.00 67 1011.5
20260509164029 74 355 1.0 4.0 0.00 0.00 0.00 65 1011.5
20260509163531 74 329 1.0 4.0 0.00 0.00 0.00 68 1011.4
20260509163042 74 0 1.0 6.0 0.00 0.00 0.00 67 1011.4
20260509162528 74 27 2.0 6.0 0.00 0.00 0.00 64 1011.5
20260509162029 74 291 1.0 5.0 0.00 0.00 0.00 67 1011.3
20260509161540 74 304 1.0 5.0 0.00 0.00 0.00 65 1011.4
20260509161029 73 0 0.0 5.0 0.00 0.00 0.00 69 1011.3
20260509160529 73 155 1.0 5.0 0.00 0.00 0.00 66 1011.3
20260509160048 73 0 1.0 5.0 0.00 0.00 0.00 68 1011.4
20260509155531 72 206 1.0 5.0 0.00 0.00 0.00 68 1011.2
20260509155031 72 312 1.0 4.0 0.00 0.00 0.00 67 1011.3
20260509154547 72 286 2.0 8.0 0.00 0.00 0.00 72 1011.3
20260509154029 72 0 0.0 8.0 0.00 0.00 0.00 70 1011.3
20260509153529 72 180 3.0 8.0 0.00 0.00 0.00 70 1011.3
20260509153046 72 221 1.0 5.0 0.00 0.00 0.00 69 1011.2
20260509152529 72 144 1.0 5.0 0.00 0.00 0.00 69 1011.2
20260509152029 71 0 0.0 5.0 0.00 0.00 0.00 74 1011.2
20260509151543 71 262 0.0 5.0 0.00 0.00 0.00 72 1011.2
20260509151032 71 281 1.0 7.0 0.00 0.00 0.00 72 1011.1
20260509150529 71 0 1.0 7.0 0.00 0.00 0.00 72 1011.1
20260509150042 70 213 1.0 7.0 0.00 0.00 0.00 72 1011.0
20260509145529 70 288 3.0 7.0 0.00 0.00 0.00 75 1011.0
20260509145029 70 306 1.0 4.0 0.00 0.00 0.00 73 1011.0
20260509144548 70 0 1.0 5.0 0.00 0.00 0.00 74 1011.0
20260509144029 69 292 1.0 5.0 0.00 0.00 0.00 75 1011.1
20260509143532 68 311 0.0 6.0 0.00 0.00 0.00 77 1011.1
20260509143047 68 212 2.0 7.0 0.00 0.00 0.00 75 1011.0
20260509142532 68 227 1.0 7.0 0.00 0.00 0.00 78 1011.1
20260509142031 67 216 2.0 7.0 0.00 0.00 0.00 79 1011.1
20260509141545 67 246 0.0 6.0 0.00 0.00 0.00 78 1010.9
20260509141029 66 0 2.0 6.0 0.00 0.00 0.00 77 1010.9
20260509140528 66 281 1.0 6.0 0.00 0.00 0.00 78 1010.9
20260509140048 66 317 2.0 8.0 0.00 0.00 0.00 79 1011.0
20260509135528 66 221 2.0 8.0 0.00 0.00 0.00 79 1011.0
20260509135028 65 242 2.0 7.0 0.00 0.00 0.00 79 1010.8
20260509134544 65 247 2.0 8.0 0.00 0.00 0.00 79 1010.8
20260509134028 65 0 3.0 8.0 0.00 0.00 0.00 78 1010.8
20260509133528 65 235 2.0 10.0 0.00 0.00 0.00 81 1010.7
20260509133041 64 196 2.0 10.0 0.00 0.00 0.00 80 1010.6
20260509132527 64 197 4.0 10.0 0.00 0.00 0.00 80 1010.6
20260509132028 63 270 3.0 8.0 0.00 0.00 0.00 80 1010.6
20260509131551 63 216 1.0 8.0 0.00 0.00 0.00 82 1010.7
20260509131028 63 219 4.0 8.0 0.00 0.00 0.00 83 1010.6
20260509130529 62 215 2.0 11.0 0.00 0.00 0.00 82 1010.7
20260509130059 62 213 3.0 12.0 0.00 0.00 0.00 82 1010.8
20260509125532 62 229 3.0 12.0 0.00 0.00 0.00 83 1010.7
20260509125028 62 207 3.0 9.0 0.00 0.00 0.00 83 1010.6
20260509124549 61 178 1.0 7.0 0.00 0.00 0.00 85 1010.8
20260509124028 60 233 3.0 7.0 0.00 0.00 0.00 85 1010.7
20260509123528 60 331 2.0 11.0 0.00 0.00 0.00 85 1010.7
20260509123051 59 197 4.0 11.0 0.00 0.00 0.00 85 1010.8
20260509122529 59 219 5.0 9.0 0.00 0.00 0.00 85 1010.4
20260509122029 59 227 3.0 10.0 0.00 0.00 0.00 86 1010.5
20260509121540 59 218 4.0 10.0 0.00 0.00 0.00 86 1010.3
20260509121030 58 187 4.0 11.0 0.00 0.00 0.00 86 1010.1
20260509120529 58 181 3.0 11.0 0.00 0.00 0.00 86 1010.1
20260509120056 58 198 4.0 10.0 0.00 0.00 0.00 86 1010.0
20260509115528 58 190 2.0 10.0 0.00 0.00 0.00 88 1009.9
20260509115031 57 216 3.0 10.0 0.00 0.00 0.00 87 1009.9
20260509114548 57 180 4.0 10.0 0.00 0.00 0.00 88 1009.8
20260509114029 56 169 3.0 10.0 0.00 0.00 0.00 89 1009.7
20260509113528 56 233 2.0 10.0 0.00 0.00 0.00 90 1009.5
20260509113044 55 202 2.0 7.0 0.00 0.00 0.00 90 1009.6
20260509112527 55 188 2.0 7.0 0.00 0.00 0.00 91 1009.4
20260509112028 54 150 3.0 8.0 0.00 0.00 0.00 91 1009.4
20260509111544 54 213 4.0 8.0 0.00 0.00 0.00 91 1009.4
20260509111027 54 130 3.0 8.0 0.00 0.00 0.00 91 1009.4
20260509110529 54 189 2.0 8.0 0.00 0.00 0.00 90 1009.4
20260509110044 54 223 3.0 8.0 0.00 0.00 0.00 90 1009.2
20260509105527 54 211 2.0 6.0 0.00 0.00 0.00 90 1009.3
20260509105029 54 194 2.0 8.0 0.00 0.00 0.00 90 1009.4
20260509104541 54 192 3.0 8.0 0.00 0.00 0.00 90 1009.4
20260509104028 54 217 3.0 9.0 0.00 0.00 0.00 89 1009.2
20260509103527 54 223 2.0 9.0 0.00 0.00 0.00 89 1009.2
20260509103040 54 194 2.0 7.0 0.00 0.00 0.00 89 1009.1
20260509102527 54 130 3.0 11.0 0.00 0.00 0.00 89 1009.2
20260509102028 54 204 4.0 11.0 0.00 0.00 0.00 89 1009.3
20260509101548 54 184 2.0 7.0 0.00 0.00 0.00 89 1009.2
20260509101027 54 0 2.0 7.0 0.00 0.00 0.00 89 1009.3
20260509100528 54 219 2.0 6.0 0.00 0.00 0.00 88 1009.3
20260509100045 55 164 2.0 5.0 0.00 0.00 0.00 88 1009.2
20260509095527 55 132 1.0 5.0 0.00 0.00 0.00 88 1009.3
20260509095026 55 163 2.0 7.0 0.00 0.00 0.00 87 1009.2
20260509094545 55 139 2.0 8.0 0.00 0.00 0.00 87 1009.4
20260509094027 55 199 2.0 8.0 0.00 0.00 0.00 87 1009.6
20260509093527 55 144 2.0 6.0 0.00 0.00 0.00 87 1009.6
20260509093041 55 184 2.0 6.0 0.00 0.00 0.00 87 1009.5
20260509092527 55 168 2.0 6.0 0.00 0.00 0.00 87 1009.7
20260509092029 55 165 2.0 7.0 0.00 0.00 0.00 86 1009.8
20260509091541 55 179 2.0 7.0 0.00 0.00 0.00 86 1009.8
20260509091030 56 186 2.0 7.0 0.00 0.00 0.00 86 1009.8
20260509090527 56 150 2.0 6.0 0.00 0.00 0.00 85 1009.9
20260509090049 56 138 1.0 5.0 0.00 0.00 0.00 85 1010.1
20260509085526 56 0 1.0 5.0 0.00 0.00 0.00 85 1010.2
20260509085028 56 212 0.0 5.0 0.00 0.00 0.00 85 1010.2
20260509084547 56 236 1.0 5.0 0.00 0.00 0.00 85 1010.0
20260509084026 56 181 1.0 5.0 0.00 0.00 0.00 85 1009.9
20260509083528 56 176 2.0 5.0 0.00 0.00 0.00 84 1009.9
20260509083044 56 192 1.0 5.0 0.00 0.00 0.00 84 1010.0
20260509082529 56 161 2.0 5.0 0.00 0.00 0.00 84 1010.0
20260509082027 56 171 1.0 5.0 0.00 0.00 0.00 84 1010.0
20260509081550 56 191 2.0 4.0 0.00 0.00 0.00 84 1010.2
20260509081027 56 191 1.0 5.0 0.00 0.00 0.00 84 1010.3
20260509080527 56 0 1.0 5.0 0.00 0.00 0.00 84 1010.1
20260509080042 56 189 1.0 5.0 0.00 0.00 0.00 84 1010.0
20260509075529 56 0 2.0 5.0 0.00 0.00 0.00 84 1009.9
20260509075030 56 0 0.0 4.0 0.00 0.00 0.00 84 1009.9
20260509074541 56 193 1.0 3.0 0.00 0.00 0.00 84 1009.8
20260509074026 56 176 1.0 7.0 0.00 0.00 0.00 83 1009.7
20260509073526 56 192 2.0 7.0 0.00 0.00 0.00 83 1009.8
20260509073048 56 190 1.0 4.0 0.00 0.00 0.00 83 1009.8
20260509072528 56 170 1.0 8.0 0.00 0.00 0.00 83 1009.8
20260509072030 56 223 3.0 8.0 0.00 0.00 0.00 83 1010.1
20260509071553 56 165 2.0 7.0 0.00 0.00 0.00 83 1010.1
20260509071026 56 180 2.0 6.0 0.00 0.00 0.00 83 1010.0
20260509070527 56 167 1.0 5.0 0.00 0.00 0.00 82 1009.9
20260509070043 56 196 1.0 4.0 0.00 0.00 0.00 82 1009.9
20260509065527 57 173 1.0 5.0 0.00 0.00 0.00 81 1009.7
20260509065029 57 197 1.0 5.0 0.00 0.00 0.00 81 1009.7
20260509064542 57 197 1.0 7.0 0.00 0.00 0.00 80 1009.9
20260509064029 57 183 1.0 7.0 0.00 0.00 0.00 80 1010.0
20260509063526 57 218 2.0 7.0 0.00 0.00 0.00 80 1010.0
20260509063048 57 180 2.0 6.0 0.00 0.00 0.00 80 1010.4
20260509062529 57 209 1.0 6.0 0.00 0.00 0.00 79 1010.6
20260509062029 57 230 1.0 5.0 0.00 0.00 0.00 79 1010.7
20260509061604 57 178 2.0 8.0 0.00 0.00 0.00 79 1010.5
20260509061026 57 198 3.0 8.0 0.00 0.00 0.00 79 1010.5
20260509060526 57 205 3.0 8.0 0.00 0.00 0.00 79 1010.6
20260509055529 57 178 2.0 6.0 0.00 0.00 0.00 79 1010.7
20260509055027 57 198 2.0 7.0 0.00 0.00 0.00 78 1011.0
20260509054549 57 227 2.0 7.0 0.00 0.00 0.00 78 1011.0
20260509054029 57 198 3.0 8.0 0.00 0.00 0.00 78 1011.0
20260509053529 57 225 3.0 8.0 0.00 0.00 0.00 79 1011.1
20260509053045 57 194 2.0 7.0 0.00 0.00 0.00 79 1011.0
20260509052527 56 213 3.0 7.0 0.00 0.00 0.00 78 1011.0
20260509052026 56 165 0.0 5.0 0.00 0.00 0.00 78 1011.1
20260509051539 56 188 2.0 5.0 0.00 0.00 0.00 78 1011.2
20260509051027 56 187 1.0 5.0 0.00 0.00 0.00 78 1011.2
20260509050527 56 194 1.0 7.0 0.00 0.00 0.00 78 1011.1
20260509045529 56 205 1.0 3.0 0.00 0.00 0.00 77 1010.8
20260509045029 56 0 1.0 4.0 0.00 0.00 0.00 77 1010.7
20260509044558 56 171 1.0 4.0 0.00 0.00 0.00 76 1010.9
20260509044026 56 198 1.0 4.0 0.00 0.00 0.00 76 1010.8
20260509043526 56 167 2.0 5.0 0.00 0.00 0.00 76 1010.8
20260509043041 56 194 1.0 5.0 0.00 0.00 0.00 76 1010.7
20260509042527 56 175 1.0 5.0 0.00 0.00 0.00 75 1010.6
20260509042032 56 198 1.0 5.0 0.00 0.00 0.00 75 1010.7
20260509041546 56 175 1.0 4.0 0.00 0.00 0.00 75 1010.7
20260509041027 56 179 1.0 4.0 0.00 0.00 0.00 74 1010.8
20260509040526 56 0 0.0 7.0 0.00 0.00 0.00 74 1010.8
20260509040048 56 178 1.0 7.0 0.00 0.00 0.00 74 1010.9
20260509035531 56 0 1.0 4.0 0.00 0.00 0.00 73 1011.0
20260509035028 57 169 0.0 4.0 0.00 0.00 0.00 73 1011.1